Time,TemperatureF,DewpointF,PressureIn,WindDirection,WindDirectionDegrees,WindSpeedMPH,WindSpeedGustMPH,Humidity,HourlyPrecipIn,Conditions,Clouds,dailyrainin,SoftwareType,DateUTC
2013-08-08 00:01:00,63.0,54.0,30.45,WSW,246,1.0,-999.0,72,-99.99,,,-99.99,,2013-08-08 07:01:00,
2013-08-08 00:12:00,63.0,54.0,30.45,WSW,246,1.0,-999.0,72,-99.99,,,-99.99,,2013-08-08 07:12:00,
2013-08-08 00:22:00,63.0,54.0,30.45,WSW,246,1.0,-999.0,73,-99.99,,,-99.99,,2013-08-08 07:22:00,
2013-08-08 00:32:00,63.0,54.0,30.45,WSW,246,1.0,-999.0,72,-99.99,,,-99.99,,2013-08-08 07:32:00,
2013-08-08 00:43:00,63.0,54.0,30.45,WSW,246,1.0,-999.0,72,-99.99,,,-99.99,,2013-08-08 07:43:00,
2013-08-08 00:53:00,63.0,54.0,30.45,WSW,246,2.0,-999.0,72,-99.99,,,-99.99,,2013-08-08 07:53:00,
2013-08-08 01:02:00,63.0,54.0,30.45,WSW,246,0.0,-999.0,72,-99.99,,,-99.99,,2013-08-08 08:02:00,
2013-08-08 01:11:00,63.0,54.0,30.45,WSW,246,0.0,-999.0,72,-99.99,,,-99.99,,2013-08-08 08:11:00,
2013-08-08 01:22:00,63.0,52.0,30.44,WSW,246,0.0,-999.0,67,-99.99,,,-99.99,,2013-08-08 08:22:00,
2013-08-08 01:32:00,63.0,51.0,30.43,West,270,1.0,-999.0,66,-99.99,,,-99.99,,2013-08-08 08:32:00,
2013-08-08 01:43:00,63.0,51.0,30.43,West,270,1.0,-999.0,66,-99.99,,,-99.99,,2013-08-08 08:43:00,
2013-08-08 01:53:00,65.0,51.0,30.43,West,280,1.0,-999.0,61,-99.99,,,-99.99,,2013-08-08 08:53:00,
2013-08-08 02:01:00,65.0,51.0,30.42,West,280,2.0,-999.0,61,-99.99,,,-99.99,,2013-08-08 09:01:00,
2013-08-08 02:12:00,65.0,51.0,30.42,West,280,2.0,-999.0,61,-99.99,,,-99.99,,2013-08-08 09:12:00,
2013-08-08 02:22:00,63.0,53.0,30.42,West,280,1.0,-999.0,69,-99.99,,,-99.99,,2013-08-08 09:22:00,
2013-08-08 02:32:00,62.0,53.0,30.43,West,280,0.0,-999.0,73,-99.99,,,-99.99,,2013-08-08 09:32:00,
2013-08-08 02:43:00,62.0,53.0,30.43,West,280,0.0,-999.0,73,-99.99,,,-99.99,,2013-08-08 09:43:00,
2013-08-08 02:53:00,62.0,52.0,30.43,West,280,0.0,-999.0,70,-99.99,,,-99.99,,2013-08-08 09:53:00,
2013-08-08 03:01:00,61.0,52.0,30.42,West,280,0.0,-999.0,72,-99.99,,,-99.99,,2013-08-08 10:01:00,
2013-08-08 03:12:00,61.0,52.0,30.42,West,280,0.0,-999.0,72,-99.99,,,-99.99,,2013-08-08 10:12:00,
2013-08-08 03:22:00,63.0,51.0,30.43,West,280,2.0,-999.0,65,-99.99,,,-99.99,,2013-08-08 10:22:00,
2013-08-08 03:32:00,63.0,51.0,30.42,West,280,2.0,-999.0,65,-99.99,,,-99.99,,2013-08-08 10:32:00,
2013-08-08 03:43:00,63.0,51.0,30.42,West,280,2.0,-999.0,65,-99.99,,,-99.99,,2013-08-08 10:43:00,
2013-08-08 03:52:00,63.0,53.0,30.42,West,280,2.0,-999.0,70,-99.99,,,-99.99,,2013-08-08 10:52:00,
2013-08-08 04:01:00,62.0,50.0,30.43,West,280,2.0,-999.0,65,-99.99,,,-99.99,,2013-08-08 11:01:00,
2013-08-08 04:11:00,62.0,50.0,30.43,West,280,2.0,-999.0,65,-99.99,,,-99.99,,2013-08-08 11:11:00,
2013-08-08 04:22:00,62.0,51.0,30.42,West,280,1.0,-999.0,68,-99.99,,,-99.99,,2013-08-08 11:22:00,
2013-08-08 04:32:00,66.0,49.0,30.42,West,280,2.0,-999.0,55,-99.99,,,-99.99,,2013-08-08 11:32:00,
2013-08-08 04:43:00,66.0,49.0,30.42,West,280,2.0,-999.0,55,-99.99,,,-99.99,,2013-08-08 11:43:00,
2013-08-08 04:52:00,65.0,50.0,30.41,West,280,1.0,-999.0,58,-99.99,,,-99.99,,2013-08-08 11:52:00,
2013-08-08 05:01:00,66.0,50.0,30.41,West,280,1.0,-999.0,57,-99.99,,,-99.99,,2013-08-08 12:01:00,
2013-08-08 05:11:00,66.0,50.0,30.41,West,280,1.0,-999.0,57,-99.99,,,-99.99,,2013-08-08 12:11:00,
2013-08-08 05:21:00,63.0,52.0,30.42,West,280,0.0,-999.0,67,-99.99,,,-99.99,,2013-08-08 12:21:00,
2013-08-08 05:32:00,62.0,50.0,30.43,West,280,0.0,-999.0,65,-99.99,,,-99.99,,2013-08-08 12:32:00,
2013-08-08 05:43:00,62.0,50.0,30.43,West,280,0.0,-999.0,65,-99.99,,,-99.99,,2013-08-08 12:43:00,
2013-08-08 05:53:00,63.0,51.0,30.43,West,281,0.0,-999.0,64,-99.99,,,-99.99,,2013-08-08 12:53:00,
2013-08-08 06:01:00,63.0,52.0,30.44,West,281,0.0,-999.0,67,-99.99,,,-99.99,,2013-08-08 13:01:00,
2013-08-08 06:11:00,63.0,52.0,30.44,West,281,0.0,-999.0,67,-99.99,,,-99.99,,2013-08-08 13:11:00,
2013-08-08 06:22:00,63.0,51.0,30.43,West,280,0.0,-999.0,64,-99.99,,,-99.99,,2013-08-08 13:22:00,
2013-08-08 06:32:00,65.0,54.0,30.45,West,281,0.0,-999.0,67,-99.99,,,-99.99,,2013-08-08 13:32:00,
2013-08-08 06:43:00,65.0,54.0,30.45,West,281,0.0,-999.0,67,-99.99,,,-99.99,,2013-08-08 13:43:00,
2013-08-08 08:32:00,76.0,55.0,30.47,NNE,25,3.0,-999.0,48,-99.99,,,-99.99,,2013-08-08 15:32:00,
2013-08-08 08:43:00,76.0,55.0,30.47,NNE,25,3.0,-999.0,48,-99.99,,,-99.99,,2013-08-08 15:43:00,
2013-08-08 08:53:00,76.0,54.0,30.47,NE,44,2.0,-999.0,46,-99.99,,,-99.99,,2013-08-08 15:53:00,
2013-08-08 09:01:00,76.0,51.0,30.47,NE,47,1.0,-999.0,41,-99.99,,,-99.99,,2013-08-08 16:01:00,
2013-08-08 09:11:00,76.0,51.0,30.47,NE,47,1.0,-999.0,41,-99.99,,,-99.99,,2013-08-08 16:11:00,
2013-08-08 09:22:00,77.0,55.0,30.47,ENE,62,1.0,-999.0,47,-99.99,,,-99.99,,2013-08-08 16:22:00,
2013-08-08 09:32:00,78.0,52.0,30.47,ENE,68,0.0,-999.0,41,-99.99,,,-99.99,,2013-08-08 16:32:00,
2013-08-08 09:42:00,78.0,52.0,30.47,ENE,68,0.0,-999.0,41,-99.99,,,-99.99,,2013-08-08 16:42:00,
2013-08-08 09:52:00,79.0,53.0,30.47,East,85,1.0,-999.0,41,-99.99,,,-99.99,,2013-08-08 16:52:00,
2013-08-08 10:01:00,79.0,50.0,30.47,NE,38,2.0,-999.0,36,-99.99,,,-99.99,,2013-08-08 17:01:00,
2013-08-08 10:11:00,79.0,50.0,30.47,NE,38,2.0,-999.0,36,-99.99,,,-99.99,,2013-08-08 17:11:00,
2013-08-08 10:21:00,80.0,52.0,30.46,NE,38,4.0,-999.0,38,-99.99,,,-99.99,,2013-08-08 17:21:00,
2013-08-08 10:32:00,80.0,49.0,30.46,NE,51,4.0,-999.0,34,-99.99,,,-99.99,,2013-08-08 17:32:00,
2013-08-08 10:43:00,80.0,49.0,30.46,NE,51,4.0,-999.0,34,-99.99,,,-99.99,,2013-08-08 17:43:00,
2013-08-08 10:52:00,81.0,51.0,30.47,NNE,14,3.0,-999.0,35,-99.99,,,-99.99,,2013-08-08 17:52:00,
2013-08-08 11:01:00,82.0,47.0,30.47,NNE,23,4.0,-999.0,30,-99.99,,,-99.99,,2013-08-08 18:01:00,
2013-08-08 11:11:00,82.0,47.0,30.47,NNE,23,4.0,-999.0,30,-99.99,,,-99.99,,2013-08-08 18:11:00,
2013-08-08 11:22:00,82.0,47.0,30.46,ENE,68,2.0,-999.0,29,-99.99,,,-99.99,,2013-08-08 18:22:00,
2013-08-08 11:32:00,83.0,47.0,30.46,NE,47,4.0,-999.0,28,-99.99,,,-99.99,,2013-08-08 18:32:00,
2013-08-08 11:43:00,83.0,47.0,30.46,NE,47,4.0,-999.0,28,-99.99,,,-99.99,,2013-08-08 18:43:00,
2013-08-08 11:53:00,83.0,49.0,30.46,East,80,4.0,-999.0,31,-99.99,,,-99.99,,2013-08-08 18:53:00,
2013-08-08 12:01:00,84.0,49.0,30.45,NE,47,4.0,-999.0,30,-99.99,,,-99.99,,2013-08-08 19:01:00,
2013-08-08 12:11:00,84.0,49.0,30.45,NE,47,4.0,-999.0,30,-99.99,,,-99.99,,2013-08-08 19:11:00,
2013-08-08 12:22:00,84.0,47.0,30.45,NE,47,3.0,-999.0,28,-99.99,,,-99.99,,2013-08-08 19:22:00,
2013-08-08 12:32:00,84.0,47.0,30.44,SW,222,1.0,-999.0,28,-99.99,,,-99.99,,2013-08-08 19:32:00,
2013-08-08 12:43:00,84.0,47.0,30.44,SW,222,1.0,-999.0,28,-99.99,,,-99.99,,2013-08-08 19:43:00,
2013-08-08 12:58:00,85.0,47.0,30.45,SSE,157,1.0,-999.0,27,-99.99,,,-99.99,,2013-08-08 19:58:00,
2013-08-08 13:11:00,85.0,48.0,30.43,SSW,198,2.0,-999.0,28,-99.99,,,-99.99,,2013-08-08 20:11:00,
2013-08-08 13:22:00,85.0,48.0,30.45,South,179,3.0,-999.0,28,-99.99,,,-99.99,,2013-08-08 20:22:00,
2013-08-08 13:32:00,85.0,47.0,30.45,South,181,3.0,-999.0,27,-99.99,,,-99.99,,2013-08-08 20:32:00,
2013-08-08 13:42:00,85.0,47.0,30.45,South,181,3.0,-999.0,27,-99.99,,,-99.99,,2013-08-08 20:42:00,
2013-08-08 13:52:00,86.0,47.0,30.44,WSW,250,2.0,-999.0,26,-99.99,,,-99.99,,2013-08-08 20:52:00,
2013-08-08 14:01:00,86.0,44.0,30.44,West,271,1.0,-999.0,23,-99.99,,,-99.99,,2013-08-08 21:01:00,
2013-08-08 14:12:00,86.0,44.0,30.44,West,271,1.0,-999.0,23,-99.99,,,-99.99,,2013-08-08 21:12:00,
2013-08-08 14:23:00,87.0,46.0,30.42,North,1,3.0,-999.0,24,-99.99,,,-99.99,,2013-08-08 21:23:00,
2013-08-08 14:33:00,88.0,43.0,30.41,NNE,28,2.0,-999.0,21,-99.99,,,-99.99,,2013-08-08 21:33:00,
2013-08-08 14:43:00,88.0,43.0,30.41,NNE,28,2.0,-999.0,21,-99.99,,,-99.99,,2013-08-08 21:43:00,
2013-08-08 15:04:00,88.0,46.0,30.41,WSW,253,4.0,-999.0,23,-99.99,,,-99.99,,2013-08-08 22:04:00,
2013-08-08 15:15:00,88.0,46.0,30.41,WSW,253,4.0,-999.0,23,-99.99,,,-99.99,,2013-08-08 22:15:00,
2013-08-08 15:33:00,87.0,41.0,30.40,SSW,195,3.0,-999.0,20,-99.99,,,-99.99,,2013-08-08 22:33:00,
2013-08-08 15:47:00,87.0,41.0,30.40,SSW,195,3.0,-999.0,20,-99.99,,,-99.99,,2013-08-08 22:47:00,
2013-08-08 16:04:00,88.0,44.0,30.40,WSW,251,5.0,-999.0,22,-99.99,,,-99.99,,2013-08-08 23:04:00,
2013-08-08 16:14:00,88.0,44.0,30.40,WSW,251,5.0,-999.0,22,-99.99,,,-99.99,,2013-08-08 23:14:00,
2013-08-08 16:23:00,88.0,46.0,30.39,WNW,295,3.0,-999.0,23,-99.99,,,-99.99,,2013-08-08 23:23:00,
2013-08-08 16:44:00,88.0,44.0,30.40,NNW,328,5.0,-999.0,22,-99.99,,,-99.99,,2013-08-08 23:44:00,
2013-08-08 16:57:00,87.0,46.0,30.39,NNW,340,3.0,-999.0,24,-99.99,,,-99.99,,2013-08-08 23:57:00,
2013-08-08 17:03:00,88.0,43.0,30.39,NNW,339,2.0,-999.0,21,-99.99,,,-99.99,,2013-08-09 00:03:00,
2013-08-08 17:14:00,88.0,43.0,30.39,NNW,339,2.0,-999.0,21,-99.99,,,-99.99,,2013-08-09 00:14:00,
2013-08-08 17:24:00,85.0,44.0,30.37,NW,305,5.0,-999.0,24,-99.99,,,-99.99,,2013-08-09 00:24:00,
2013-08-08 17:34:00,85.0,44.0,30.37,NW,323,2.0,-999.0,24,-99.99,,,-99.99,,2013-08-09 00:34:00,
2013-08-08 17:45:00,85.0,44.0,30.37,NW,323,2.0,-999.0,24,-99.99,,,-99.99,,2013-08-09 00:45:00,
2013-08-08 17:55:00,85.0,44.0,30.37,NW,318,0.0,-999.0,24,-99.99,,,-99.99,,2013-08-09 00:55:00,
2013-08-08 18:02:00,86.0,43.0,30.37,SW,232,2.0,-999.0,22,-99.99,,,-99.99,,2013-08-09 01:02:00,
2013-08-08 18:13:00,86.0,43.0,30.37,SW,232,2.0,-999.0,22,-99.99,,,-99.99,,2013-08-09 01:13:00,
2013-08-08 18:23:00,85.0,45.0,30.37,West,278,2.0,-999.0,25,-99.99,,,-99.99,,2013-08-09 01:23:00,
2013-08-08 18:33:00,85.0,42.0,30.37,NW,304,5.0,-999.0,22,-99.99,,,-99.99,,2013-08-09 01:33:00,
2013-08-08 18:45:00,85.0,42.0,30.37,NW,304,5.0,-999.0,22,-99.99,,,-99.99,,2013-08-09 01:45:00,
2013-08-08 18:59:00,84.0,41.0,30.37,WNW,294,5.0,-999.0,22,-99.99,,,-99.99,,2013-08-09 01:59:00,
2013-08-08 19:12:00,82.0,41.0,30.37,WNW,288,3.0,-999.0,23,-99.99,,,-99.99,,2013-08-09 02:12:00,
2013-08-08 19:23:00,79.0,43.0,30.37,WNW,288,2.0,-999.0,28,-99.99,,,-99.99,,2013-08-09 02:23:00,
2013-08-08 20:23:00,74.0,43.0,30.36,WNW,284,2.0,-999.0,33,-99.99,,,-99.99,,2013-08-09 03:23:00,
2013-08-08 20:34:00,74.0,42.0,30.36,WNW,282,2.0,-999.0,32,-99.99,,,-99.99,,2013-08-09 03:34:00,
2013-08-08 20:44:00,74.0,42.0,30.36,WNW,282,2.0,-999.0,32,-99.99,,,-99.99,,2013-08-09 03:44:00,
2013-08-08 20:56:00,74.0,43.0,30.37,WNW,288,3.0,-999.0,33,-99.99,,,-99.99,,2013-08-09 03:56:00,
2013-08-08 21:01:00,74.0,43.0,30.37,WNW,294,3.0,-999.0,33,-99.99,,,-99.99,,2013-08-09 04:01:00,
2013-08-08 21:12:00,74.0,43.0,30.37,WNW,294,3.0,-999.0,33,-99.99,,,-99.99,,2013-08-09 04:12:00,
2013-08-08 21:22:00,74.0,43.0,30.40,WNW,291,3.0,-999.0,33,-99.99,,,-99.99,,2013-08-09 04:22:00,
2013-08-08 21:33:00,73.0,43.0,30.40,WNW,287,3.0,-999.0,34,-99.99,,,-99.99,,2013-08-09 04:33:00,
2013-08-08 21:43:00,73.0,43.0,30.40,WNW,287,3.0,-999.0,34,-99.99,,,-99.99,,2013-08-09 04:43:00,
2013-08-08 21:53:00,73.0,42.0,30.40,WNW,285,3.0,-999.0,33,-99.99,,,-99.99,,2013-08-09 04:53:00,
2013-08-08 23:32:00,73.0,41.0,30.40,West,280,2.0,-999.0,32,-99.99,,,-99.99,,2013-08-09 06:32:00,
2013-08-08 23:43:00,73.0,41.0,30.40,West,280,2.0,-999.0,32,-99.99,,,-99.99,,2013-08-09 06:43:00,